Overview Statistics Trail Chart Weather Telemetry Raw packets
 

This is the latest recevied weather packets stored in our database for station/object WW6Q. If no packets are shown the sender has not sent any weather packets the latest 10 day(s).

<< 5 6 7 8 9 10 11 >>
Time Temp. Humidity Pressure Rain* Wind** Luminosity Snow
1788591317 19.44° C 97% 1015 hPa 6.1 mm - 0 W/m² -
1788591013 19.44° C 96% 1014.7 hPa 41.4 mm - 0 W/m² -
1788590707 19.44° C 95% 1014 hPa 52.32 mm - 0 W/m² -
1788590402 20° C 95% 1014.6 hPa 41.4 mm - 0 W/m² -
1788590096 20° C 95% 1014.5 hPa 53.34 mm - 0 W/m² -
1788589793 21.11° C 91% 1014.8 hPa 24.64 mm - 0 W/m² -
1788589492 22.22° C 83% 1014.3 hPa 0 mm - 0 W/m² -
1788589188 22.78° C 79% 1013.1 hPa 0 mm - 0 W/m² -
1788588882 23.33° C 82% 1012.8 hPa 0 mm - 0 W/m² -
1788588582 23.33° C 84% 1013.4 hPa 0 mm - 0 W/m² -
1788588278 23.33° C 87% 1013.4 hPa 0 mm - 0 W/m² -
1788587978 23.33° C 88% 1013 hPa 0 mm - 0 W/m² -
1788587677 23.33° C 91% 1012.9 hPa 0 mm - 0 W/m² -
1788587377 23.33° C 91% 1012.6 hPa 0 mm - 0 W/m² -
1788587073 22.78° C 91% 1012.5 hPa 0 mm - 0 W/m² -
1788586773 22.78° C 93% 1012.7 hPa 0 mm - 0 W/m² -
1788586468 22.78° C 93% 1012.7 hPa 0 mm - 0 W/m² -
1788586164 22.78° C 93% 1012.6 hPa 0 mm - 0 W/m² -
1788585863 22.78° C 93% 1012.6 hPa 0 mm - 0 W/m² -
1788585580 22.78° C 93% 1012.8 hPa 0 mm - 0 W/m² -
1788585258 22.78° C 92% 1012.5 hPa 0 mm - 0 W/m² -
1788584956 22.78° C 92% 1012.7 hPa 0 mm - 0 W/m² -
1788584651 22.78° C 92% 1013 hPa 0 mm - 0 W/m² -
1788584347 22.78° C 93% 1013.1 hPa 0 mm - 0 W/m² -
1788584042 22.78° C 94% 1013 hPa 0 mm - 0 W/m² -

* Rain latest hour (hover to see other rain measurements)
** Current wind speed in m/s (hover to see current wind gust speed)